PROBA-1 1 26958U 01049B 26104.60889653 .00001651 00000+0 11057-3 0 9991 2 26958 97.9628 110.9267 0054796 339.5996 20.3041 15.07256245334045 CUTE-1 (CO-55) 1 27844U 03031E 26104.46186940 .00000209 00000+0 10934-3 0 9993 2 27844 98.6765 113.8179 0009852 18.0224 342.1302 14.24295708182603 CUBESAT XI-IV (CO-57) 1 27848U 03031J 26103.57507156 .00000185 00000+0 10026-3 0 9999 2 27848 98.6796 112.7063 0010141 37.9126 322.2764 14.23586039182188 APRIZESAT 4 1 35684U 09041D 26104.46448641 .00000495 00000+0 65843-4 0 9997 2 35684 98.1433 178.5143 0043732 166.6273 193.6110 14.83781980901915 APRIZESAT 3 1 35686U 09041F 26104.36202518 .00001449 00000+0 13048-3 0 9998 2 35686 98.1974 254.5681 0060456 277.8968 81.5393 14.96029335906834 PROBA-2 1 36037U 09059B 26104.41616513 .00000128 00000+0 40256-4 0 9993 2 36037 98.2448 288.6535 0014354 115.6466 244.6215 14.54814509872258 APRIZESAT 5 1 37792U 11044E 26104.22825828 .00000493 00000+0 69796-4 0 9994 2 37792 98.2426 35.4746 0051627 207.4053 152.4434 14.80952981789321 APRIZESAT 6 1 37793U 11044F 26104.20691962 .00000434 00000+0 68945-4 0 9993 2 37793 98.2395 13.3935 0041902 291.4699 223.0729 14.76829536787702 PROBA-V 1 39159U 13021A 26104.37056890 .00000047 00000+0 38611-4 0 9998 2 39159 98.3551 86.1423 0003547 335.7988 24.3025 14.23583323672034 APRIZESAT 7 1 39416U 13066A 26104.41985723 .00001051 00000+0 10955-3 0 9990 2 39416 97.7652 58.5851 0037347 63.8186 296.6866 14.91404935671725 APRIZESAT 8 1 39425U 13066K 26104.57662997 .00000568 00000+0 67569-4 0 9998 2 39425 97.8171 52.9598 0047111 133.9210 226.5910 14.87516550670212 BUGSAT-1 (TITA) 1 40014U 14033E 26104.57464340 .00003362 00000+0 18242-3 0 9999 2 40014 98.0412 193.4451 0029110 40.4638 319.8750 15.14965628646208 SAUDISAT 4 1 40016U 14033G 26104.40940141 .00000400 00000+0 59650-4 0 9990 2 40016 97.7486 252.7848 0043431 281.2777 78.3556 14.79451575636646 APRIZESAT 9 1 40018U 14033J 26104.60829512 .00000321 00000+0 54673-4 0 9994 2 40018 97.8955 239.3980 0067150 45.6425 315.0258 14.74143957634199 APRIZESAT 10 1 40019U 14033K 26104.31597813 .00000406 00000+0 71355-4 0 9999 2 40019 97.9544 232.7390 0080147 117.3639 243.5753 14.70821302632862 TECHDEMOSAT-1 (TDS-1) 1 40076U 14037H 26104.39524329 .00004237 00000+0 24907-3 0 9992 2 40076 98.3802 90.3479 0008013 117.5298 242.6746 15.12297538638580 TECHNOSAT 1 42829U 17042E 26104.47773236 .00001177 00000+0 87887-4 0 9998 2 42829 97.4196 264.6046 0016730 314.6283 45.3578 15.04566304477122 FLYING LAPTOP 1 42831U 17042G 26104.65187112 .00002069 00000+0 16706-3 0 9995 2 42831 97.4397 262.7585 0019084 342.3414 17.7145 15.00756235476924 HAWK-A 1 43765U 18099H 26104.40591089 .00003937 00000+0 16346-3 0 9995 2 43765 97.3983 157.4924 0036542 148.0073 212.3393 15.23816066403380 HAWK-B 1 43794U 18099AN 26104.15529484 .00003736 00000+0 16405-3 0 9992 2 43794 97.4034 156.7911 0033182 165.5698 194.6494 15.22060212403299 HAWK-C 1 43799U 18099AT 26103.99910367 .00004948 00000+0 18418-3 0 9994 2 43799 97.3962 157.6959 0042412 150.8907 209.4709 15.27099573404114 SALSAT 1 46495U 20068K 26104.48169045 .00004429 00000+0 16070-3 0 9999 2 46495 97.8863 103.7166 0010634 156.4150 203.7578 15.28863974305622 HAWK-2C 1 47502U 21006CT 26104.36698808 .00003696 00000+0 11505-3 0 9996 2 47502 97.2351 149.9654 0008699 76.0929 284.1281 15.33877819289715 HAWK-2A 1 47505U 21006CW 26104.10909413 .00003886 00000+0 12082-3 0 9990 2 47505 97.2393 150.3525 0008312 80.0136 280.2045 15.33888831289670 HAWK-2B 1 47508U 21006CZ 26104.49761247 .00003997 00000+0 12411-3 0 9995 2 47508 97.2265 149.1708 0008798 76.7834 283.4390 15.33902796289737 HAWK-3B 1 48931U 21059BE 26104.46429291 .00023410 00000+0 24358-3 0 9996 2 48931 97.6709 295.3914 0005569 192.6146 167.4974 15.64578857267876 HAWK-3C 1 48948U 21059BX 26103.95231742 .00025483 00000+0 26523-3 0 9997 2 48948 97.6848 300.4040 0005833 194.3028 165.8066 15.64552843267790 HAWK-3A 1 48957U 21059CG 26104.33596322 .00024166 00000+0 25146-3 0 9995 2 48957 97.6785 298.0796 0005586 192.5970 167.5150 15.64571812267858 HAWK-5C 1 52754U 22057Y 26104.39834776 .00011181 00000+0 20751-3 0 9998 2 52754 97.6509 260.1091 0003819 301.4445 58.6431 15.49123548216460 HAWK-5B 1 52756U 22057AA 26104.46277148 .00011072 00000+0 20557-3 0 9995 2 52756 97.6510 258.5202 0003748 293.5220 66.5636 15.49114315216470 HAWK-5A 1 52757U 22057AB 26104.46254633 .00011291 00000+0 20955-3 0 9995 2 52757 97.6511 259.3534 0004138 296.8958 63.1869 15.49119969216478 HAWK-6B 1 55324U 23011A 26104.03709953 .00002756 00000+0 12520-3 0 9997 2 55324 40.4999 6.0706 0004404 292.5531 67.4812 15.22357104178064 HAWK-6C 1 55326U 23011C 26104.43009459 .00002638 00000+0 12021-3 0 9992 2 55326 40.4988 0.6259 0004581 283.7958 76.2341 15.22359499178130 HAWK-6A 1 55327U 23011D 26104.43012195 .00002602 00000+0 11870-3 0 9996 2 55327 40.4999 2.2446 0004328 283.8082 76.2246 15.22359298178138 HAWK-7A 1 56191U 23054P 26104.41559514 .00003184 00000+0 12400-3 0 9998 2 56191 97.2784 353.3773 0001044 249.0541 111.0587 15.26698726167296 HAWK-7B 1 56193U 23054R 26104.48107404 .00003138 00000+0 12225-3 0 9998 2 56193 97.2815 351.6818 0000331 299.2716 60.8490 15.26699323167303 HAWK-7C 1 56200U 23054Y 26104.48097476 .00003076 00000+0 11986-3 0 9998 2 56200 97.2790 352.4708 0000588 228.7562 131.3626 15.26698505167307